Starlink 11722

operational
NORAD ID: 64128 Int'l Des: 2025-111 Owner: SPXS Country: US Constellation: starlink
LEOCIRCULAR

Starlink 11722について

説明を読み込み中...

リアルタイム位置

3D地球を読み込み中...

次回通過

高度履歴

Altitude vs Time

uPlot chart will show altitude changes over time

軌道要素

1 64128U 25111F 25353.40925733 .00218753 00000-0 16618-2 0 9992
2 64128 42.9995 97.7051 0001165 199.8598 160.2224 15.70868177 33960
Epoch: Dec 19, 2025 • Age: 22 hours

現在のステータス

高度 357.4 km
速度 7.70 km/s
衛星直下点 35.30°N, 59.24°W
打ち上げ日 May 24, 2025
運用期間 0.5 years
タイプ internet

技術仕様

分類 Payload
質量 960.00 kg
乾燥質量 910.00 kg
総質量 960.00 kg
長さ 0.30 m
直径 4.10 m
スパン 29.00 m
形状 Box + pan
製造者 SPXS
バスタイプ Starlink V2MD
フェーズステータス In Orbit
所有者/国 SPXS/US

大規模コンステレーション

Loading constellations...